Find Molniya-1

NORAD ID: 15214 Int'l Des: 1984-089 Owner: NPOE Country: SU unknown
MEOELLIPTICALHEO_ELLIPTICALMOLNIYA_TYPE

Live Position

Loading 3D Globe...

About Molniya-1

Description loading...

Upcoming Passes

Passes for default location (London). Set your location on the main map for personalized predictions.

Altitude History

Loading altitude history...

Two-Line Element Set

1 15214U 84089A 26102.72204691 .00000198 00000-0 00000+0 0 9991
2 15214 62.9671 132.1753 6951523 278.8008 14.4061 2.29642330 10932
Epoch: Apr 12, 2026 • Age: 119 hours

Current Status

Altitude 33771.6 km
Velocity 1.85 km/s
Sub-Earth Point 62.97°N, 134.35°E
Launch Date Aug 24, 1984
Age 41.6 years
Type other

Technical Details

Classification Payload
Mass 1650.00 kg
Dry Mass 1620.00 kg
Total Mass 1650.00 kg
Length 4.40 m
Diameter 1.40 m
Span 8.60 m
Shape Cyl + 6 Pan
Manufacturer NPOPM
Bus Type Molniya-1
Phase Status In Orbit
Owner/State NPOE/SU

Most Searched